User: anonymous   Login
Location: Champaign/Urbana Astronomical Society Observatory
(40.0333°N, 88.2833°W)
Time: 20:01:55
(UTC-05:00)
Language:

DX 1 - Orbit

View from above orbital plane
View from above orbital plane
View from above satellite
View from above satellite

Ground track
Ground track

The orbit data is extracted from the following two-line orbital elements,

1 40071U 14037C   19146.79027524  .00000044  00000-0  13223-4 0  9997
2 40071  98.4226 299.5085 0007550 305.4306  54.6202 14.81264494263868
Epoch (UTC): 26 May 2019 18:57:59
Eccentricity: 0.0007550
inclination: 98.4226°
perigee height: 620 km
apogee height: 630 km
right ascension of ascending node: 299.5085°
argument of perigee: 305.4306°
revolutions per day: 14.81264494
mean anomaly at epoch: 54.6202°
orbit number at epoch: 26386

The dashed part of the orbit path shows where the satellite is in the earth's shadow,  

DLR